Humidity-temperature Sensor

Selected Measurement Type: Air Temperature

 
Air Temperature [°C]     6 entries per hour
Showing data from 2/26/2017 (00:00:00 Z) to 2/23/2017 (00:01:00 Z)
Previous Next [ Day | 3-Days | 7-Days ]
First Last
Prev [ Day | 3-Days | 7-Days ] Next
First Last

Start Time:     :
End Time:     :     
Time (in GMT) :00 :50 :40 :30 :20 :10
Previous Next [ Day | 3-Days | 7-Days ]
First Last
Prev [ Day | 3-Days | 7-Days ] Next
First Last


123 => good data
MM => data is determined as missing
-- => data not received/configured
Back to Top Back to Top
2/26/2017 00:00 to 23:10 26.64 26.61 26.71 26.73 26.68 26.61
2/25/2017 23:00 to 22:10 26.57 26.55 26.49 26.46 26.42 26.46
2/25/2017 22:00 to 21:10 26.46 26.51 26.46 26.37 26.43 26.53
2/25/2017 21:00 to 20:10 26.36 26.42 26.39 26.42 26.54 26.34
2/25/2017 20:00 to 19:10 26.44 26.41 26.41 26.55 26.49 26.45
2/25/2017 19:00 to 18:10 26.63 26.66 26.48 26.51 26.57 26.57
2/25/2017 18:00 to 17:10 26.53 26.57 26.56 26.60 26.61 26.54
2/25/2017 17:00 to 16:10 26.67 26.47 26.56 26.72 26.61 26.56
2/25/2017 16:00 to 15:10 26.71 26.65 26.40 26.30 26.38 26.02
2/25/2017 15:00 to 14:10 26.14 26.11 25.90 25.91 25.79 26.04
2/25/2017 14:00 to 13:10 26.17 26.07 26.03 26.05 25.97 25.83
2/25/2017 13:00 to 12:10 25.74 25.66 25.59 25.63 25.88 25.93
2/25/2017 12:00 to 11:10 26.12 26.21 26.09 26.15 26.17 26.16
2/25/2017 11:00 to 10:10 26.27 26.15 26.15 26.19 26.17 26.25
2/25/2017 10:00 to 9:10 -- -- -- -- -- --
2/25/2017 09:00 to 8:10 26.37 26.39 26.45 26.31 26.39 26.41
2/25/2017 08:00 to 7:10 26.42 26.48 26.25 26.27 26.32 26.14
2/25/2017 07:00 to 6:10 26.26 26.33 26.15 26.17 26.01 25.91
2/25/2017 06:00 to 5:10 25.88 25.72 25.51 25.40 25.48 25.37
2/25/2017 05:00 to 4:10 25.26 25.02 25.09 25.27 25.09 24.89
2/25/2017 04:00 to 3:10 24.87 24.75 25.17 25.30 24.97 25.07
2/25/2017 03:00 to 2:10 25.01 24.89 25.02 24.59 24.93 24.99
2/25/2017 02:00 to 1:10 25.25 25.13 25.54 25.86 26.26 26.31
2/25/2017 01:00 to 0:10 26.56 26.51 26.35 26.15 26.24 26.14
2/25/2017 00:00 to 23:10 25.83 25.74 25.71 26.58 26.61 26.67
2/24/2017 23:00 to 22:10 26.50 27.13 27.20 27.14 27.16 27.14
2/24/2017 22:00 to 21:10 27.04 27.00 27.12 26.99 27.00 27.04
2/24/2017 21:00 to 20:10 27.01 26.98 27.14 27.06 27.05 27.14
2/24/2017 20:00 to 19:10 27.11 27.09 27.06 27.07 27.09 27.06
2/24/2017 19:00 to 18:10 27.10 27.07 27.27 27.31 27.17 27.14
2/24/2017 18:00 to 17:10 26.99 27.25 27.21 27.19 27.04 27.11
2/24/2017 17:00 to 16:10 26.78 26.79 26.83 27.01 26.95 26.83
2/24/2017 16:00 to 15:10 26.42 26.28 26.52 26.53 26.43 26.34
2/24/2017 15:00 to 14:10 26.37 26.17 25.96 26.72 26.60 26.71
2/24/2017 14:00 to 13:10 26.84 26.71 26.66 26.66 26.68 26.67
2/24/2017 13:00 to 12:10 26.58 26.63 26.71 26.54 26.75 26.58
2/24/2017 12:00 to 11:10 26.14 25.89 26.72 26.66 26.71 26.75
2/24/2017 11:00 to 10:10 26.82 26.79 26.78 26.75 26.75 26.89
2/24/2017 10:00 to 9:10 26.83 26.85 26.96 26.92 26.92 26.94
2/24/2017 09:00 to 8:10 26.60 26.13 25.67 24.83 24.97 24.98
2/24/2017 08:00 to 7:10 25.22 24.76 25.38 25.31 25.07 25.41
2/24/2017 07:00 to 6:10 25.72 25.77 26.33 25.60 25.50 25.46
2/24/2017 06:00 to 5:10 25.24 25.14 24.86 26.04 25.90 25.86
2/24/2017 05:00 to 4:10 26.21 26.97 26.90 26.47 27.08 27.20
2/24/2017 04:00 to 3:10 27.26 27.04 27.12 27.15 27.03 27.16
2/24/2017 03:00 to 2:10 27.08 27.08 27.07 27.03 27.20 27.14
2/24/2017 02:00 to 1:10 27.09 27.03 26.86 26.14 26.01 25.78
2/24/2017 01:00 to 0:10 26.28 25.82 25.71 25.61 27.20 27.06
2/24/2017 00:00 to 23:10 27.29 27.32 27.28 27.29 27.17 27.35
2/23/2017 23:00 to 22:10 27.13 27.30 27.20 27.08 27.12 27.10
2/23/2017 22:00 to 21:10 27.13 27.11 27.20 27.15 27.12 27.05
2/23/2017 21:00 to 20:10 27.00 27.17 27.12 27.02 26.96 26.94
2/23/2017 20:00 to 19:10 26.83 26.90 26.97 26.98 26.90 27.00
2/23/2017 19:00 to 18:10 27.02 27.01 26.83 26.89 26.83 26.72
2/23/2017 18:00 to 17:10 26.78 27.27 27.17 27.25 27.11 27.23
2/23/2017 17:00 to 16:10 27.11 27.14 26.79 26.97 26.98 26.93
2/23/2017 16:00 to 15:10 27.05 27.10 27.20 26.69 26.90 26.86
2/23/2017 15:00 to 14:10 26.89 26.78 26.64 26.69 26.69 26.64
2/23/2017 14:00 to 13:10 26.68 26.65 26.60 26.70 26.61 26.68
2/23/2017 13:00 to 12:10 26.53 26.64 26.57 26.71 26.67 26.65
2/23/2017 12:00 to 11:10 26.70 26.77 26.71 26.59 26.78 26.72
2/23/2017 11:00 to 10:10 26.71 26.72 26.81 26.77 26.69 26.73
2/23/2017 10:00 to 9:10 26.77 26.52 26.60 26.71 26.68 26.84
2/23/2017 09:00 to 8:10 26.82 26.84 26.92 26.90 26.99 27.05
2/23/2017 08:00 to 7:10 26.88 26.89 26.99 27.06 27.03 27.06
2/23/2017 07:00 to 6:10 27.02 27.06 27.06 27.10 27.08 27.11
2/23/2017 06:00 to 5:10 27.13 27.17 27.23 27.14 27.20 27.23
2/23/2017 05:00 to 4:10 27.19 27.11 27.19 27.19 27.09 27.18
2/23/2017 04:00 to 3:10 27.20 27.10 27.06 27.05 27.00 27.03
2/23/2017 03:00 to 2:10 27.05 27.04 27.16 27.09 27.09 27.27
2/23/2017 02:00 to 1:10 27.26 27.14 27.34 27.29 27.24 27.15
2/23/2017 01:00 to 0:10 27.18 27.18 27.12 27.08 27.08 27.08